This is the latest recevied weather packets stored in our database for station/object KD7CIH. If no packets are shown the sender has not sent any weather packets the latest 1 day(s).
| Time | Temp. | Humidity | Pressure | Rain* | Wind** | Luminosity | Snow |
|---|---|---|---|---|---|---|---|
| 1777976463 | 3.33° C | 73% | 1006.6 hPa | 0 mm | 0.45 m/s, 144° | - | - |
| 1777976284 | 3.33° C | 72% | 1006.5 hPa | 0 mm | 0.89 m/s, 104° | - | - |
| 1777975862 | 3.33° C | 72% | 1006.5 hPa | 0 mm | 0.89 m/s, 84° | - | - |
| 1777975562 | 3.33° C | 72% | 1006.6 hPa | 0 mm | 0.89 m/s, 128° | - | - |
| 1777975264 | 3.33° C | 71% | 1006.5 hPa | 0 mm | 0.45 m/s, 103° | - | - |
| 1777974964 | 3.33° C | 70% | 1006.5 hPa | 0 mm | 0.45 m/s, 119° | - | - |
| 1777974662 | 3.33° C | 70% | 1006.5 hPa | 0 mm | 0.45 m/s, 140° | - | - |
| 1777974363 | 3.89° C | 69% | 1006.6 hPa | 0 mm | 0.89 m/s, 149° | - | - |
| 1777974062 | 3.89° C | 69% | 1006.5 hPa | 0 mm | 1.34 m/s, 74° | - | - |
| 1777973763 | 3.89° C | 69% | 1006.4 hPa | 0 mm | 0.89 m/s, 86° | - | - |
| 1777973462 | 3.89° C | 68% | 1006.4 hPa | 0 mm | 0.89 m/s, 112° | - | - |
| 1777973278 | 3.89° C | 68% | 1006.3 hPa | 0 mm | 1.34 m/s, 99° | - | - |
| 1777972862 | 3.89° C | 68% | 1006.3 hPa | 0 mm | 1.79 m/s, 153° | - | - |
| 1777972564 | 3.89° C | 68% | 1006.3 hPa | 0 mm | 2.24 m/s, 87° | - | - |
| 1777972380 | 3.89° C | 68% | 1006.3 hPa | 0 mm | 0.89 m/s, 189° | - | - |
| 1777971961 | 3.89° C | 68% | 1006.3 hPa | 0 mm | 0.89 m/s, 93° | - | - |
| 1777971660 | 3.89° C | 68% | 1006.3 hPa | 0 mm | 0.89 m/s, 154° | - | - |
| 1777971360 | 3.89° C | 67% | 1006.1 hPa | 0 mm | 0.45 m/s, 138° | - | - |
| 1777971060 | 4.44° C | 67% | 1006.1 hPa | 0 mm | 0 m/s | - | - |
| 1777970760 | 4.44° C | 66% | 1006.1 hPa | 0 mm | 1.34 m/s, 113° | - | - |
| 1777970460 | 4.44° C | 65% | 1006 hPa | 0 mm | 1.79 m/s, 88° | - | - |
| 1777970161 | 5° C | 65% | 1006.1 hPa | 0 mm | 1.79 m/s, 110° | - | - |
| 1777969974 | 5° C | 65% | 1006.1 hPa | 0 mm | 1.79 m/s, 107° | - | - |
* Rain latest hour (hover to see other rain measurements)
** Current wind speed in m/s (hover to see current wind gust speed)